"Pseudo-MPEC" for P21vXoR

Created 2022 Aug 28 0:22:27 UT using Find_Orb

Click here for an explanation of pseudo-MPECs

 
 Astrometry: 
     P21vXoR  C2022 08 01_x!f1?kTP,AstrometryLi@_L31Qaq;G3!lyHYSB9ltn2`3Xndd@F52
     P21vXoR  C2022 08 01-+%3kdYZ'O[sN),'%yMn``'TE(NRg.@+y*?odFEFsM)Y/c3\c'B#F52
     P21vXoR  C2022 08 01b:WbC+nd94pl?ib]5a]b4gredacted;AC*TZm5VpRq':n2.Xw(LqF52
     P21vXoR* C2022 08 08hy`)]H$D;.ROUB,%N#,hqrP)RM2YC)GwD+4F#lDrTwHcsThG1Ni(F52
     P21vXoR  C2022 08 08F?1SGw2D[3u%c%A/Jnc!tJHA[v0cC)NP*b)aO$@nBEiQo]opSuD#F52
     P21vXoR  C2022 08 08De^@O!=3*G=0/FK_%k-GjPR`hG0Aw/EAN];$_37iZ.clickSj/$)F52
     P21vXoR  C2022 08 10hIji9@ASbC*@M);!fV%%ipnJYGnB%Q0NuShoNuXq97fERhecGk,rF52
     P21vXoR  C2022 08 1090+;XM@/7o*D7r22jLN[lsh48Q\)7.CH9^@$61MtUN'+:K1h-#;OF52
     P21vXoR* C2022 08 268TZN]q\Z?OFIw64$dCCmJ(-v9v]pk2.EF6]=L=7U67$3Ml7k54^:F51
     P21vXoR  C2022 08 26F6/vMg943_%JQg9-#PejWX\#Gpaag-wv]$K=k8pbYG)r.a#tQ4,3F51
     P21vXoR  C2022 08 267S^S;K:l!xq$I4I;7?#p@,B)my#yh/2Ybp2WuMJw%A!(U$CFCp=`F51
     P21vXoR  C2022 08 26mFhere.F#-4f?n)j`e-0bfQ=naAkakX6RK6`K:G`@T/04pPvZlfdF51
     P21vXoR  C2022 08 261M_Vh$HFnTK*nwD;7%[EhF3^v/sBL_,7flGTJIU#HKWGfnL9:HMSF51
     P21vXoR  C2022 08 26x6L@eM-QsU+C$`a\AcaR0NG6*:Q,A^*2dJ(OQ6JEem#.9Gr!y\)sF51
     P21vXoR KC2022 08 273o$?jb#'_UYO5]tT+QZmE[?F5)iu^S5)o8_usD*,ssforjGMOybBH21
     P21vXoR KC2022 08 27DwbD2MVmC:FXwoJ]jw'N*UGNt#!6yy4;wYJVmKL%HA)+e'g9eB`9H21
     P21vXoR  C2022 08 27D5KoS91Q:DUpK#uQ\Dsf)8GJRexplanation2Fl%k'uE-jRU)n_eF52
     P21vXoR  C2022 08 27%:Vx^)dBBeltQ9@0^+]cv5cQsX+2w0N7gLPpkrl0@1aLIcX,LTviF52

Station data:
(F51) Pan-STARRS 1, Haleakala  (N20.707234 W156.255910)  US/Hawaii.
   Observers J. Bulger, T. Lowe, A. Schultz, M. Willman. Measurers K.
   Chambers, S. Chastel, T. de Boer, L. Denneau, J. Fairlamb, H. Flewelling,
   M. Huber, C.-C. Lin, E. Magnier, Y. Ramanjooloo, R. Wainscoat, R. Weryk.
   1.8-m Ritchey-Chrétien + CCD.
(F52) Pan-STARRS 2, Haleakala  (N20.707382 W156.255910)  US/Hawaii.
   Observers J. Bulger, T. Dukes, T. Lowe, A. Schultz, M. Willman. Measurers
   K. Chambers, S. Chastel, T. de Boer, L. Denneau, J. Fairlamb, H.
   Flewelling, M. Huber, C.-C. Lin, E. Magnier, Y. Ramanjooloo, R. Wainscoat,
   R. Weryk. 1.8-m Ritchey-Chrétien + CCD.
(H21) Astronomical Research Observatory, Westfield  (N39.483054 W87.968270)
   US/Illinois.  Observer R. Holmes. Measurers S. Foglia, L. Buzzi, T.
   Linder, R. Holmes. 0.76-m f/3.0 astrograph + CCD0.81-m f/4.0 astrograph +
   CCD0.61-m f/4.5 astrograph + CCD0.40-m f/5.32 astrograph + CCD.

Orbital elements:  P21vXoR
   Perihelion 2022 Sep 3.90528 +/- 0.0639 TT = 21:43:36 (JD 2459826.40528)
Epoch 2022 Aug 27.0 TT = JDT 2459818.5   Earth MOID: 0.5217   AutoNEOCP
M 357.78997054 +/- 0.029            (J2000 ecliptic)
n   0.27956377 +/- 0.00147          Peri.  168.51227 +/- 0.042
a   2.31641012 +/- 0.00812          Node   201.65228 +/- 0.029
e   0.3431552 +/- 0.00192           Incl.    6.90979 +/- 0.0039
P   3.53                   H 19.5   G  0.15   U  8.4
q 1.52152194 +/- 0.000895    Q 3.11129830 +/- 0.0153
From 18 observations 2022 Aug. 1-27; mean residual 0".12
Residuals in arcseconds: 
220801 F52  .08-  .08-    220810 F52  .01+  .02+    220826 F51  .00   .10+    
220801 F52  .04+  .05+    220810 F52  .04+  .08-    220826 F51  .20+  .02-    
220801 F52  .06+  .06+    220826 F51  .18-  .17+    220827 H21  .12+  .16-    
220808 F52  .10-  .32+    220826 F51  .06-  .11+    220827 H21  .13+  .10-    
220808 F52  .15+  .22-    220826 F51  .04+  .05+    220827 F52  .12-  .01-    
220808 F52  .14-  .09-    220826 F51  .04+  .06+    220827 F52  .15-  .01+    

Ephemerides (geocentric):
Date (UTC) HH   RA             Dec           delta  r     elong  mag " sig PA
---- --------  ------------   ------------  ------ ------ -----  --- --------
2022 08 28 00  02 45 06.847   +19 27 45.46  .84991 1.5226 109.6 21.6 .077 174
2022 08 28 01  02 45 11.771   +19 27 51.20  .84965 1.5226 109.6 21.6 .079 174
2022 08 28 02  02 45 16.693   +19 27 56.90  .84939 1.5225 109.6 21.6 .082 173
2022 08 28 03  02 45 21.613   +19 28 02.58  .84913 1.5225 109.6 21.6 .085 173
2022 08 28 04  02 45 26.530   +19 28 08.22  .84887 1.5225 109.7 21.6 .087 172
2022 08 28 05  02 45 31.444   +19 28 13.83  .84861 1.5225 109.7 21.6 .090 172
2022 08 28 06  02 45 36.357   +19 28 19.42  .84835 1.5225 109.7 21.6 .093 172
2022 08 28 07  02 45 41.267   +19 28 24.97  .84809 1.5225 109.7 21.6 .096 171
2022 08 28 08  02 45 46.174   +19 28 30.49  .84784 1.5225 109.7 21.6 .098 171
2022 08 28 09  02 45 51.079   +19 28 35.97  .84758 1.5225 109.8 21.6 .101 171
2022 08 28 10  02 45 55.982   +19 28 41.43  .84732 1.5224 109.8 21.6 .104 171
2022 08 28 11  02 46 00.882   +19 28 46.86  .84706 1.5224 109.8 21.6 .107 170
2022 08 28 12  02 46 05.780   +19 28 52.25  .84680 1.5224 109.8 21.6 .110 170
2022 08 28 13  02 46 10.675   +19 28 57.62  .84654 1.5224 109.8 21.6 .113 170
2022 08 28 14  02 46 15.568   +19 29 02.95  .84629 1.5224 109.9 21.5 .116 170
2022 08 28 15  02 46 20.458   +19 29 08.25  .84603 1.5224 109.9 21.5 .119 169
2022 08 28 16  02 46 25.346   +19 29 13.52  .84577 1.5224 109.9 21.5 .121 169
2022 08 28 17  02 46 30.232   +19 29 18.76  .84551 1.5224 109.9 21.5 .124 169
2022 08 28 18  02 46 35.115   +19 29 23.97  .84525 1.5224 110.0 21.5 .127 169
2022 08 28 19  02 46 39.996   +19 29 29.15  .84500 1.5223 110.0 21.5 .130 169
2022 08 28 20  02 46 44.874   +19 29 34.29  .84474 1.5223 110.0 21.5 .133 168
2022 08 28 21  02 46 49.750   +19 29 39.41  .84448 1.5223 110.0 21.5 .136 168
2022 08 28 22  02 46 54.623   +19 29 44.49  .84422 1.5223 110.0 21.5 .139 168
2022 08 28 23  02 46 59.494   +19 29 49.54  .84397 1.5223 110.1 21.5 .142 168
2022 08 29 00  02 47 04.362   +19 29 54.56  .84371 1.5223 110.1 21.5 .145 168
2022 08 29 01  02 47 09.228   +19 29 59.55  .84345 1.5223 110.1 21.5 .149 168
2022 08 29 02  02 47 14.091   +19 30 04.51  .84320 1.5223 110.1 21.5 .152 167
2022 08 29 03  02 47 18.952   +19 30 09.44  .84294 1.5223 110.1 21.5 .155 167
2022 08 29 04  02 47 23.811   +19 30 14.33  .84268 1.5222 110.2 21.5 .158 167
2022 08 29 05  02 47 28.667   +19 30 19.20  .84243 1.5222 110.2 21.5 .161 167
2022 08 29 06  02 47 33.520   +19 30 24.03  .84217 1.5222 110.2 21.5 .164 167
2022 08 29 07  02 47 38.371   +19 30 28.83  .84191 1.5222 110.2 21.5 .167 167
2022 08 29 08  02 47 43.219   +19 30 33.61  .84166 1.5222 110.3 21.5 .171 167
2022 08 29 09  02 47 48.065   +19 30 38.35  .84140 1.5222 110.3 21.5 .174 167
2022 08 29 10  02 47 52.909   +19 30 43.05  .84115 1.5222 110.3 21.5 .177 167
2022 08 29 11  02 47 57.750   +19 30 47.73  .84089 1.5222 110.3 21.5 .180 166
2022 08 29 12  02 48 02.588   +19 30 52.38  .84063 1.5222 110.3 21.5 .183 166
2022 08 29 13  02 48 07.424   +19 30 56.99  .84038 1.5222 110.4 21.5 .187 166
2022 08 29 14  02 48 12.257   +19 31 01.57  .84012 1.5221 110.4 21.5 .190 166
2022 08 29 15  02 48 17.088   +19 31 06.13  .83987 1.5221 110.4 21.5 .193 166
2022 08 29 16  02 48 21.917   +19 31 10.65  .83961 1.5221 110.4 21.5 .197 166
2022 08 29 17  02 48 26.742   +19 31 15.13  .83936 1.5221 110.5 21.5 .200 166
2022 08 29 18  02 48 31.566   +19 31 19.59  .83910 1.5221 110.5 21.5 .203 166
2022 08 29 19  02 48 36.386   +19 31 24.02  .83884 1.5221 110.5 21.5 .207 166
2022 08 29 20  02 48 41.205   +19 31 28.41  .83859 1.5221 110.5 21.5 .210 166
2022 08 29 21  02 48 46.020   +19 31 32.78  .83833 1.5221 110.5 21.5 .213 166
2022 08 29 22  02 48 50.833   +19 31 37.11  .83808 1.5221 110.6 21.5 .217 166
2022 08 29 23  02 48 55.644   +19 31 41.41  .83782 1.5221 110.6 21.5 .220 166